Lake Eufaula Weather Center

Moon Phase Calendar



Lake Eufaula Water Level
Online Cameras

 


      

Current Conditions in Georgetown
12/3/2021 5:12:49 AM

45°F
Feels Like 42
Clouds
Humidity
94%
Pressure
30.09"
Wind
4.8 mph (W)
Dew Point
43°F
UV Index
0/10 (Low)
Visibility
6 mi

Hourly Forecast

Date & Time Fri, Dec 3
5:00 AM
Fri, Dec 3
6:00 AM
Fri, Dec 3
7:00 AM
Fri, Dec 3
8:00 AM
Fri, Dec 3
9:00 AM
Fri, Dec 3
10:00 AM
Fri, Dec 3
11:00 AM
Fri, Dec 3
12:00 PM
Fri, Dec 3
1:00 PM
Fri, Dec 3
2:00 PM
Fri, Dec 3
3:00 PM
Fri, Dec 3
4:00 PM
Fri, Dec 3
5:00 PM
Fri, Dec 3
6:00 PM
Fri, Dec 3
7:00 PM
Fri, Dec 3
8:00 PM
Fri, Dec 3
9:00 PM
Fri, Dec 3
10:00 PM
Fri, Dec 3
11:00 PM
Sat, Dec 4
12:00 AM
Sat, Dec 4
1:00 AM
Sat, Dec 4
2:00 AM
Sat, Dec 4
3:00 AM
Sat, Dec 4
4:00 AM
Sat, Dec 4
5:00 AM
Sat, Dec 4
6:00 AM
Sat, Dec 4
7:00 AM
Sat, Dec 4
8:00 AM
Sat, Dec 4
9:00 AM
Sat, Dec 4
10:00 AM
Sat, Dec 4
11:00 AM
Sat, Dec 4
12:00 PM
Sat, Dec 4
1:00 PM
Sat, Dec 4
2:00 PM
Sat, Dec 4
3:00 PM
Sat, Dec 4
4:00 PM
Sat, Dec 4
5:00 PM
Sat, Dec 4
6:00 PM
Sat, Dec 4
7:00 PM
Sat, Dec 4
8:00 PM
Sat, Dec 4
9:00 PM
Sat, Dec 4
10:00 PM
Sat, Dec 4
11:00 PM
Sun, Dec 5
12:00 AM
Sun, Dec 5
1:00 AM
Sun, Dec 5
2:00 AM
Sun, Dec 5
3:00 AM
Sun, Dec 5
4:00 AM
Condition
Clouds

Clouds

Clouds

Clouds

Clouds

Clouds

Clouds

Clouds

Clouds

Clouds

Clouds

Clouds

Clouds

Clouds

Clouds

Clouds

Clouds

Clouds

Clouds

Clouds

Clouds

Clouds

Clouds

Clouds

Clouds

Clouds

Clouds

Clouds

Clouds

Clouds

Clouds

Clouds

Clouds

Clouds

Clouds

Clouds

Clouds

Clouds

Clouds

Clear

Clear

Clear

Clear

Clear

Clear

Clear

Clear

Clear
Temperature 45°F47°F48°F51°F56°F64°F68°F71°F73°F74°F74°F73°F68°F65°F63°F62°F61°F60°F59°F59°F58°F57°F57°F57°F56°F57°F56°F56°F61°F66°F70°F73°F75°F76°F76°F75°F71°F66°F64°F63°F62°F61°F60°F59°F58°F57°F56°F56°F
Feels Like 42°F45°F47°F50°F56°F63°F67°F70°F72°F73°F74°F72°F68°F64°F62°F61°F60°F60°F59°F58°F57°F56°F56°F56°F56°F56°F55°F56°F61°F65°F70°F73°F74°F75°F76°F75°F71°F65°F63°F62°F61°F60°F59°F58°F57°F56°F55°F55°F
Cloudiness 12%12%11%46%70%89%92%93%94%100%100%100%100%100%100%100%100%100%100%100%100%64%82%88%91%93%94%90%90%93%95%95%95%90%92%94%94%83%69%0%0%0%0%0%0%0%0%0%
Visibility 6 mi6 mi6 mi6 mi6 mi6 mi6 mi6 mi6 mi6 mi6 mi6 mi6 mi6 mi6 mi6 mi6 mi6 mi6 mi6 mi6 mi6 mi6 mi6 mi6 mi6 mi6 mi6 mi6 mi6 mi6 mi6 mi6 mi6 mi6 mi6 mi6 mi6 mi6 mi6 mi6 mi6 mi6 mi6 mi6 mi6 mi6 mi6 mi
Precipitation 0%0%0%0%0%0%0%0%0%0%0%0%0%0%0%0%0%0%0%0%0%0%0%0%0%0%0%0%0%0%0%0%0%0%0%0%0%0%0%0%0%0%0%0%0%0%0%0%
Humidity 94%94%95%93%84%71%62%55%50%47%46%48%59%66%69%72%76%77%80%82%86%89%90%91%93%91%94%93%81%69%61%54%50%47%45%46%57%65%70%73%75%76%77%79%80%81%83%85%
Dew Point 43°F45°F47°F49°F52°F54°F54°F54°F53°F52°F52°F52°F53°F53°F53°F53°F53°F53°F53°F53°F53°F53°F54°F54°F54°F54°F54°F54°F55°F55°F56°F56°F55°F54°F53°F53°F55°F54°F54°F54°F53°F53°F53°F52°F52°F51°F51°F51°F
Pressure 30.09"30.09"30.09"30.12"30.15"30.15"30.15"30.12"30.09"30.06"30.06"30.03"30.06"30.06"30.09"30.09"30.09"30.09"30.09"30.09"30.09"30.09"30.09"30.09"30.09"30.12"30.12"30.15"30.15"30.15"30.15"30.12"30.09"30.09"30.06"30.06"30.09"30.09"30.12"30.12"30.12"30.12"30.12"30.12"30.12"30.12"30.12"30.12"
Wind Speed 4.8 mph4.4 mph4 mph4 mph3.6 mph4 mph4.1 mph4.9 mph4.9 mph5.5 mph5.3 mph4.7 mph4.1 mph3.7 mph3.7 mph3.7 mph3.6 mph3.5 mph3.7 mph3.9 mph3.9 mph4.2 mph3.9 mph3.7 mph3.5 mph3.1 mph2.9 mph2.8 mph2.5 mph2.4 mph2.5 mph2.8 mph3.4 mph3.6 mph3.8 mph3.8 mph3 mph3.4 mph3.8 mph3.9 mph3 mph2.4 mph3.3 mph3.6 mph3.6 mph4 mph4 mph4 mph
Wind
Direction
279°
W
282°
WNW
293°
WNW
306°
NW
304°
NW
288°
WNW
276°
W
268°
W
270°
W
272°
W
273°
W
272°
W
268°
W
271°
W
270°
W
258°
WSW
254°
WSW
241°
WSW
240°
WSW
239°
WSW
246°
WSW
251°
WSW
249°
WSW
253°
WSW
266°
W
275°
W
293°
WNW
304°
NW
287°
WNW
272°
W
249°
WSW
240°
WSW
245°
WSW
247°
WSW
248°
WSW
236°
SW
226°
SW
216°
SW
213°
SSW
220°
SW
221°
SW
215°
SW
215°
SW
212°
SSW
200°
SSW
199°
SSW
203°
SSW
209°
SSW

Daily Forecast

Date High Low Precip. Humidity
Today
Dec 3

Clouds
74 °F
45 °F
0%
55%
Saturday
Dec 4

Clouds
76 °F
56 °F
0%
54%
Sunday
Dec 5

Clouds
74 °F
54 °F
0%
50%
Monday
Dec 6

Rain
76 °F
59 °F
98%
58%
Tuesday
Dec 7

Clouds
74 °F
53 °F
0%
60%
Wednesday
Dec 8

Rain
75 °F
63 °F
74%
77%
Thursday
Dec 9

Rain
82 °F
70 °F
81%
59%
Friday
Dec 10

Rain
78 °F
71 °F
64%
76%
Saturday
Dec 11

Rain
81 °F
65 °F
20%
63%
Sunday
Dec 12

Rain
76 °F
58 °F
98%
76%
Monday
Dec 13

Clear
64 °F
43 °F
0%
26%
Tuesday
Dec 14

Clear
66 °F
43 °F
0%
29%
Wednesday
Dec 15

Clear
70 °F
47 °F
0%
43%
Thursday
Dec 16

Clear
73 °F
53 °F
0%
55%
Friday
Dec 17

Clouds
74 °F
57 °F
0%
55%
Saturday
Dec 18

Clouds
76 °F
58 °F
0%
51%

Temperature 8-14 Day Outlook



Precipitation 8-14 Day Outlook




Quick Links
Lake Eufaula News
Lake Eufaula Photos
Lake Eufaula Videos




About Us
Contact Us
Site Map
Search Site
Advertise With Us
   
www.LakeEufaula.info
THE LAKE EUFAULA WEBSITE

Copyright 2021, Lakes Online
Privacy    |    Legal